Location: Zlin
(49.2330°N, 17.6670°E)
Time: 23:29:05
(UTC+01:00)

ISS - Pass Details

Date: 08 October 2020
Orbit: 417 x 420 km, 51.6° (Epoch: 30 October)

Event Time Altitude Azimuth Distance (km) Brightness Sun altitude
Rises 18:46:51 0° 285° (WNW) 2,368 1.8 -6.4°
Reaches altitude 10° 18:49:21 10° 267° (W) 1,501 0.9 -6.8°
Maximum altitude 18:51:48 19° 220° (SW) 1,074 -1.1 -7.2°
Drops below altitude 10° 18:54:14 10° 173° (S) 1,495 -1.0 -7.6°
Sets 18:56:43 0° 155° (SSE) 2,355 -0.2 -8.0°
